SCP
0 0 0 0 0 0 0 0 0 0 0 0 0 0 0 0 0 0 0 0 0 1 1 1 2 2 2 1 1 1 1 1 1 2 2 2 2 1 1 1 1 1 1 1
0 0 0 0 0 0 0 0 0 0 0 0 0 0 0 0 0 0 0 0 0 0 1 1 2 2 1 1 1 1 1 1 1 1 1 1 1 1 1 1 1 1 1 1
0 0 0 0 0 0 0 0 0 0 0 0 0 0 0 0 0 0 0 0 0 0 1 1 1 1 1 1 1 1 1 1 1 1 1 1 1 1 1 1 1 1 1 2
0 0 0 0 0 0 0 0 0 0 0 0 0 0 0 0 0 0 0 0 0 0 1 1 1 1 1 1 1 1 0 0 0 0 1 1 1 1 1 1 1 1 1 1
0 0 0 0 0 0 0 0 0 0 0 0 0 0 0 0 0 0 0 0 0 0 1 1 1 1 1 1 1 0 0 0 0 0 0 1 1 1 1 1 1 1 1 1
0 0 0 0 0 0 0 0 0 0 0 0 0 0 0 0 0 0 0 0 0 0 0 1 1 1 0 0 0 0 0 0 0 0 0 0 1 1 1 1 1 1 1 1
0 0 0 0 0 0 0 0 0 0 0 0 0 0 0 0 0 0 0 0 0 0 0 0 0 0 0 0 0 0 0 0 0 0 0 0 0 1 1 1 1 1 1 1
0 0 0 0 0 0 0 0 0 0 0 0 0 0 0 0 0 0 0 0 0 0 0 0 0 0 0 0 0 0 0 0 0 0 0 0 0 1 1 1 1 1 1 1
0 0 0 0 0 0 0 0 0 0 0 0 0 0 0 0 0 0 0 0 0 0 0 0 0 0 0 0 0 0 0 0 0 0 0 0 0 0 0 0 1 1 1 1
0 0 0 0 0 0 0 0 0 0 0 0 0 0 0 0 0 0 0 0 0 0 0 0 0 0 0 0 0 0 0 0 0 0 0 0 0 0 0 0 0 0 0 0
0 0 0 0 0 0 0 0 0 0 0 0 0 0 0 0 0 0 0 0 0 0 0 0 0 0 0 0 0 0 0 0 0 0 0 0 0 0 0 1 0 0 0 0
0 0 0 0 0 0 0 0 0 0 0 0 0 0 0 0 0 0 0 0 0 0 0 0 0 0 0 0 0 0 0 0 0 0 0 0 0 0 0 1 0 0 0 0
0 0 0 0 0 0 0 0 0 0 0 0 0 0 0 0 0 0 0 0 0 0 0 0 0 0 0 0 0 0 0 0 0 0 0 0 0 0 0 0 1 1 0 0
0 0 0 0 0 0 0 0 0 0 0 0 0 0 0 0 0 0 0 0 0 0 0 0 0 0 0 0 0 0 0 0 0 0 0 0 0 0 0 0 1 0 0 0
0 0 0 0 0 0 0 0 0 0 0 0 0 0 0 0 0 0 0 0 0 0 0 0 0 0 0 0 0 0 0 0 0 0 0 0 0 1 1 0 0 0 0 0
0 0 0 0 0 0 0 0 0 0 0 0 0 0 0 0 0 0 0 0 0 0 0 0 0 0 0 0 0 0 0 0 0 0 0 0 1 1 0 0 0 0 0 0
0 0 0 0 0 0 0 0 0 0 0 0 0 0 0 0 0 0 0 0 0 0 0 0 0 0 0 0 0 0 0 0 0 0 0 0 0 0 0 0 0 0 0 0
0 0 0 0 0 0 0 0 0 0 0 0 0 0 0 0 0 0 0 0 0 0 0 0 0 0 0 0 0 0 0 0 0 0 0 0 0 0 0 0 0 0 0 0
0 0 0 0 0 0 0 0 0 0 0 0 0 0 0 0 0 0 0 0 0 0 0 0 0 0 0 0 0 0 0 0 0 0 0 0 0 0 0 0 0 0 0 0
0 0 0 0 0 0 0 0 0 0 0 0 0 0 0 0 0 0 0 0 0 0 0 0 0 0 0 0 0 0 0 0 0 0 0 0 0 0 0 0 0 0 0 0
0 0 0 0 0 0 0 0 0 0 0 0 0 0 0 0 0 0 0 0 0 0 0 0 0 0 0 0 0 0 0 0 0 0 0 0 0 0 0 0 0 0 0 0
0 0 0 0 0 0 0 0 0 0 0 0 0 0 0 0 0 0 0 0 0 0 0 0 0 0 0 0 0 0 0 0 0 0 0 0 0 0 0 0 0 0 0 0
0 0 0 0 0 0 0 0 0 0 0 0 0 0 0 0 0 0 0 0 0 0 0 0 0 0 0 0 0 0 0 0 0 0 0 0 0 0 0 0 0 0 0 0
0 0 0 0 0 0 0 0 0 0 0 0 0 0 0 0 0 0 0 0 0 0 0 0 0 0 0 0 0 0 0 0 0 0 0 0 0 0 0 0 0 0 0 0
0 0 0 0 0 0 0 0 0 0 0 0 0 0 0 0 0 0 0 0 0 0 0 0 0 0 0 0 0 0 0 0 0 0 0 0 0 0 0 0 0 0 0 0
0 0 0 0 0 0 0 0 0 0 0 0 0 0 0 0 0 0 0 0 0 0 0 0 0 0 0 0 0 0 0 0 0 0 0 0 0 0 0 0 0 0 0 0
Wind_Speed
6 4 6 7 8 10 11 11 11 11 8 8 10 13 11 9 9 8 7 7 6 7 6 5 5 5 4 4 4 4 4 5 4 3 4 4 5 5 4 4 6 6 6 7
4 7 10 9 9 9 10 11 11 9 6 7 8 11 10 8 9 7 7 6 5 5 5 4 4 4 4 5 5 5 5 5 5 4 3 3 4 3 4 4 5 6 6 6
6 4 4 5 7 8 9 9 9 8 8 8 8 8 8 6 6 5 4 4 3 5 5 5 5 4 4 4 4 4 5 5 5 5 3 3 2 2 2 3 4 5 6 6
4 5 5 6 6 7 7 7 7 7 5 4 3 4 4 4 2 2 1 1 2 3 4 4 4 4 5 5 4 4 4 4 5 5 4 5 4 4 4 4 4 4 5 5
3 2 3 4 5 5 5 6 6 6 5 5 3 3 3 3 3 3 1 0 1 2 3 3 3 3 4 4 3 3 3 4 4 4 5 5 5 4 3 4 4 4 4 5
5 3 2 3 3 4 5 5 5 4 3 3 2 1 3 5 6 5 3 2 2 2 3 3 3 4 3 3 3 3 4 3 3 3 4 5 6 6 6 5 5 4 3 3
2 2 2 2 3 2 3 3 2 2 2 2 1 3 4 7 7 6 5 5 5 4 4 5 6 5 4 3 2 2 3 2 2 3 3 5 5 6 6 6 5 5 4 3
1 1 1 1 2 2 3 3 3 3 1 0 3 4 4 6 7 8 8 7 7 7 7 7 7 6 5 4 3 3 3 2 1 2 1 1 2 3 3 3 4 5 4 4
2 1 1 2 2 1 2 2 3 3 3 0 3 4 4 8 9 9 10 10 9 9 9 8 8 7 6 6 5 4 4 3 2 2 1 1 1 1 2 2 3 3 3 4
2 1 1 1 2 3 3 4 3 2 3 1 4 5 4 7 8 9 10 10 10 9 9 9 8 8 8 7 6 6 6 5 4 3 2 1 0 1 1 2 3 3 3 4
2 1 1 0 1 2 2 3 4 3 2 2 3 4 5 5 6 7 8 8 8 8 8 8 7 7 7 7 7 7 6 6 5 4 3 2 2 1 1 2 2 3 4 5
2 1 1 1 1 1 2 3 4 3 5 3 3 3 5 6 7 7 8 8 8 8 8 8 7 7 8 8 8 8 7 7 6 5 4 3 3 2 1 0 1 1 2 4
4 2 2 0 1 1 2 3 4 3 2 3 3 3 4 6 7 8 8 8 8 8 8 8 8 8 8 8 8 8 7 7 6 6 6 5 4 3 3 2 1 1 1 2
3 2 3 3 2 3 3 5 5 3 2 3 4 5 4 5 6 6 7 7 7 7 8 8 8 8 8 8 8 8 7 7 6 6 6 5 5 4 4 3 2 1 0 1
2 2 2 2 2 2 3 5 5 5 4 3 4 5 4 4 5 5 5 6 7 7 8 8 8 7 7 7 7 7 7 6 6 5 5 5 5 4 4 4 3 2 1 0
3 2 2 1 0 1 2 4 4 4 5 3 4 5 4 5 5 6 5 5 6 6 7 7 7 7 7 7 7 7 7 7 6 5 5 5 4 4 4 3 3 2 1 1
3 3 3 2 2 2 1 3 3 3 3 3 3 3 3 4 5 4 4 5 5 5 6 6 6 5 5 6 6 6 6 6 6 5 5 5 5 4 4 4 3 2 2 1
3 3 1 2 3 1 1 2 2 2 3 3 3 3 4 4 4 4 5 4 5 5 5 5 5 5 5 4 5 5 5 5 5 5 6 6 6 5 4 4 4 3 2 2
3 3 2 2 2 1 4 2 1 1 1 2 2 3 3 3 2 3 4 5 4 4 4 4 4 4 4 5 5 5 5 5 5 5 5 6 6 5 5 4 4 4 3 3
2 2 2 2 2 1 2 2 1 1 1 2 2 2 2 1 0 1 3 3 3 3 3 4 4 4 5 5 5 5 5 5 5 5 5 5 5 5 5 5 5 4 3 3
1 1 1 2 2 1 2 1 0 0 1 2 3 3 3 2 1 1 2 3 3 3 3 3 4 4 4 5 4 4 4 5 5 5 5 5 5 6 5 5 4 4 4 3
2 2 2 2 3 3 2 1 1 1 2 3 3 3 3 2 2 2 2 2 3 3 3 3 3 4 4 4 4 4 5 5 5 5 6 6 6 6 5 5 5 4 4 4
2 1 1 1 2 2 2 2 2 2 2 2 3 3 2 1 1 1 2 2 2 2 3 3 3 4 4 4 4 5 5 5 5 5 6 6 6 6 5 5 5 4 4 4
2 1 1 3 2 3 3 2 2 2 2 3 3 2 1 1 1 2 2 2 3 3 3 3 4 5 5 5 5 5 6 5 5 6 6 6 6 6 6 5 4 4 4 5
2 3 2 4 3 2 3 4 3 3 3 2 2 1 1 1 2 2 3 3 3 3 3 3 4 5 6 6 6 6 5 5 6 6 6 6 6 6 6 6 5 6 5 6
5 6 5 5 2 2 2 4 5 4 3 2 1 0 0 1 2 3 3 3 3 4 4 4 5 6 6 6 6 6 5 5 6 6 6 5 5 5 5 6 6 9 10 13
Wind_Direction
191 219 232 239 239 258 286 287 286 285 285 275 263 268 272 263 252 250 249 245 238 224 220 197 176 175 175 162 153 170 188 181 168 167 183 179 182 175 171 170 166 172 166 162
217 238 249 260 264 266 271 278 283 287 274 278 271 273 274 263 256 247 236 230 228 223 203 185 176 168 172 160 164 179 189 182 179 171 179 174 167 173 178 172 171 172 167 163
233 262 274 260 265 269 267 267 278 289 303 279 274 281 274 266 252 244 227 213 218 219 198 183 175 177 160 148 165 181 183 179 177 167 160 169 164 157 175 178 179 177 171 167
253 270 272 266 268 268 274 270 276 287 294 288 286 301 311 285 251 252 239 215 222 214 182 173 171 174 159 158 171 176 175 170 168 166 174 180 186 193 192 181 181 173 172 172
270 297 292 275 275 273 271 299 290 279 278 284 251 241 324 6 23 358 351 106 218 177 155 146 154 152 142 142 163 175 172 169 160 168 191 193 196 201 183 175 172 172 171 176
254 259 285 281 288 269 279 294 277 261 260 277 270 180 13 12 3 352 14 45 48 73 104 99 90 89 92 113 145 153 160 164 164 175 194 200 199 192 179 176 174 168 165 169
283 207 207 260 294 257 259 296 284 235 225 265 17 80 37 12 10 13 29 46 52 58 78 79 72 69 69 76 98 129 135 144 162 166 189 195 198 188 180 175 176 169 174 177
312 343 172 217 274 297 259 280 320 321 305 330 54 69 54 28 24 30 39 51 50 51 59 61 59 60 58 52 48 73 93 96 121 136 163 175 175 175 170 171 176 180 179 177
330 29 132 197 237 291 303 273 272 290 300 20 85 101 80 33 35 37 42 44 46 51 55 54 48 46 45 44 37 35 60 61 60 71 77 151 150 149 164 169 180 186 177 169
340 355 345 200 226 231 255 296 303 305 328 45 94 64 17 9 28 39 43 42 44 46 49 49 44 41 37 35 33 33 37 43 36 38 42 51 109 162 187 184 187 186 177 172
329 349 333 138 13 345 328 314 303 301 312 347 74 54 16 30 44 52 50 48 45 47 48 46 45 41 38 35 34 34 32 34 31 24 24 36 26 32 212 196 191 187 181 176
333 322 299 248 130 276 295 329 330 344 338 354 82 63 29 52 58 62 59 53 50 52 50 46 43 41 39 35 31 31 33 32 25 19 22 34 28 18 18 350 196 179 173 176
330 336 325 153 110 336 340 349 337 336 343 7 68 95 61 61 62 61 61 57 51 49 47 44 41 38 33 31 29 26 28 26 20 19 21 27 24 15 6 9 28 113 164 165
315 13 35 30 11 356 353 358 0 15 24 29 72 112 92 70 67 61 59 59 55 49 44 40 37 34 29 27 25 22 20 18 16 17 20 21 14 9 5 6 13 15 106 162
327 40 34 6 2 28 12 6 13 20 15 61 76 81 94 87 82 74 65 59 54 47 41 36 32 27 24 23 20 18 15 12 10 15 16 12 7 6 7 7 7 6 11 149
343 6 349 318 52 8 17 13 15 17 19 60 81 72 76 81 75 65 57 53 49 44 38 33 28 24 19 17 12 8 7 6 8 9 6 3 4 4 3 359 355 354 347 317
346 360 2 327 319 298 23 14 14 42 25 14 49 85 87 81 75 66 56 50 46 38 32 26 20 16 13 10 7 2 356 358 4 4 360 358 357 356 351 345 341 332 320 297
339 346 330 314 332 359 119 58 22 47 42 43 70 82 80 84 77 65 61 55 43 32 22 15 10 5 3 3 1 353 352 355 358 358 356 354 350 344 340 336 326 315 307 286
342 334 335 328 303 221 133 106 24 358 63 49 76 89 90 100 107 75 59 50 44 30 18 7 358 354 354 357 356 352 349 351 353 349 346 341 337 330 326 320 312 307 300 288
297 303 318 316 311 306 117 107 41 338 175 64 72 84 82 33 351 70 51 42 32 25 13 1 352 351 351 348 351 349 340 342 339 333 327 323 320 315 310 304 298 291 283 273
264 260 258 272 274 283 102 145 256 250 172 85 61 64 64 62 81 83 40 29 22 13 0 353 345 339 335 336 339 329 324 322 316 314 310 308 307 303 296 294 288 279 274 269
245 242 228 234 248 244 130 145 147 133 106 89 71 63 63 69 64 41 17 360 357 352 346 345 336 323 322 325 323 312 304 302 307 309 307 305 303 300 298 291 287 276 264 261
229 255 275 237 213 140 149 114 103 90 100 88 86 69 64 50 27 348 335 336 335 335 333 334 322 312 313 318 319 310 305 310 310 306 301 298 299 297 294 288 284 281 269 260
195 140 250 273 233 168 168 149 128 103 101 88 86 75 46 348 330 326 322 322 321 320 317 316 312 308 308 311 310 301 302 305 302 300 300 298 297 296 294 290 281 271 264 263
231 175 224 253 231 181 190 177 157 133 115 107 96 79 39 336 316 315 309 309 310 310 308 308 302 297 297 302 301 300 299 299 295 292 291 294 291 289 288 283 276 274 261 261
202 191 196 222 199 173 159 147 146 151 160 157 153 273 323 297 299 309 306 307 308 307 305 301 297 295 296 299 297 297 297 294 291 291 292 289 288 285 283 285 286 277 273 278